RYR9BC LGSA-EPPO

Flight info

Callsign RYR9BC
Flight time N/A
Altitude 38000
Route SOKR1K SOKRI DCT TALAS DCT LONTA UM749 UDVAR DCT PARAK DCT PATAK DCT REGLI DCT OSKEX Z159 NILPU NILP3M
Aircraft B38M/M-SDE1FGHILORVWXY/HB1

Departure

Time 2026-05-04 18:50
Airport Chania International Airport (LGSA)

Arrival

Time N/A
Airport Poznań-Ławica Airport (EPPO)
Time Latitude Longitude Altitude Speed Heading
2026-05-04 18:38 35.53883 24.14015 500 ft 0 kts 22°
2026-05-04 18:38 35.53880 24.14014 500 ft 3 kts 22°
2026-05-04 18:38 35.53855 24.14001 500 ft 4 kts 22°
2026-05-04 18:39 35.53833 24.13990 500 ft 3 kts 22°
2026-05-04 18:39 35.53810 24.13986 500 ft 4 kts 335°
2026-05-04 18:39 35.53795 24.14007 500 ft 4 kts 293°
2026-05-04 18:39 35.53790 24.14019 500 ft 1 kts 292°
2026-05-04 18:40 35.53790 24.14020 500 ft 0 kts 292°
2026-05-04 18:42 35.53791 24.14019 500 ft 1 kts 292°
2026-05-04 18:43 35.53787 24.14010 500 ft 2 kts 229°
2026-05-04 18:43 35.53756 24.13998 500 ft 9 kts 198°
2026-05-04 18:43 35.53700 24.13976 501 ft 7 kts 187°
2026-05-04 18:43 35.53670 24.14011 501 ft 7 kts 112°
2026-05-04 18:44 35.53646 24.14082 501 ft 12 kts 112°
2026-05-04 18:44 35.53620 24.14163 500 ft 19 kts 112°
2026-05-04 18:44 35.53549 24.14378 500 ft 21 kts 112°
2026-05-04 18:44 35.53498 24.14534 500 ft 19 kts 112°
2026-05-04 18:45 35.53450 24.14679 499 ft 16 kts 111°
2026-05-04 18:45 35.53407 24.14815 499 ft 18 kts 111°
2026-05-04 18:45 35.53359 24.14965 499 ft 20 kts 112°
2026-05-04 18:45 35.53305 24.15128 499 ft 21 kts 112°
2026-05-04 18:46 35.53248 24.15304 494 ft 23 kts 112°
2026-05-04 18:46 35.53186 24.15492 499 ft 24 kts 112°
2026-05-04 18:46 35.53128 24.15668 499 ft 23 kts 112°
2026-05-04 18:46 35.53070 24.15852 500 ft 24 kts 111°
2026-05-04 18:47 35.53011 24.16032 500 ft 23 kts 112°
2026-05-04 18:47 35.52949 24.16220 500 ft 24 kts 112°
2026-05-04 18:47 35.52888 24.16406 500 ft 22 kts 112°
2026-05-04 18:47 35.52827 24.16587 501 ft 24 kts 112°
2026-05-04 18:48 35.52774 24.16749 500 ft 17 kts 112°
2026-05-04 18:48 35.52734 24.16864 500 ft 9 kts 123°
2026-05-04 18:48 35.52685 24.16869 501 ft 6 kts 206°
2026-05-04 18:48 35.52643 24.16846 501 ft 7 kts 201°
2026-05-04 18:49 35.52592 24.16821 500 ft 6 kts 201°
2026-05-04 18:49 35.52578 24.16789 500 ft 4 kts 297°
2026-05-04 18:49 35.52591 24.16756 500 ft 4 kts 291°
2026-05-04 18:49 35.52606 24.16709 501 ft 10 kts 292°
2026-05-04 18:50 35.52687 24.16461 501 ft 66 kts 292°
2026-05-04 18:50 35.52950 24.15653 494 ft 135 kts 292°
2026-05-04 18:50 35.53353 24.14440 805 ft 162 kts 292°
2026-05-04 18:50 35.53784 24.13145 1581 ft 166 kts 290°
2026-05-04 18:51 35.54220 24.11839 2440 ft 165 kts 291°
2026-05-04 18:51 35.54681 24.10492 3036 ft 177 kts 292°
2026-05-04 18:51 35.55215 24.09112 3662 ft 186 kts 303°
2026-05-04 18:51 35.56186 24.07971 4144 ft 203 kts 329°
2026-05-04 18:52 35.57568 24.07503 4845 ft 211 kts 357°
2026-05-04 18:52 35.58995 24.07724 5810 ft 208 kts
2026-05-04 18:52 35.60420 24.07971 6724 ft 208 kts
2026-05-04 18:52 35.61894 24.07676 7109 ft 228 kts 338°
2026-05-04 18:53 35.63348 24.06757 7634 ft 244 kts 327°
2026-05-04 18:53 35.64762 24.05457 8150 ft 261 kts 324°
2026-05-04 18:53 35.66202 24.04103 9031 ft 262 kts 324°
2026-05-04 18:53 35.67667 24.02724 9799 ft 268 kts 324°
2026-05-04 18:54 35.69166 24.01312 10462 ft 278 kts 324°
2026-05-04 18:54 35.70755 23.99816 10813 ft 297 kts 324°
2026-05-04 18:54 35.72434 23.98232 11281 ft 311 kts 324°
2026-05-04 18:54 35.74166 23.96598 12003 ft 314 kts 324°
2026-05-04 18:55 35.75907 23.94953 12769 ft 318 kts 323°
2026-05-04 18:55 35.79460 23.91597 14237 ft 325 kts 323°
2026-05-04 18:55 35.81257 23.89898 14976 ft 326 kts 323°
2026-05-04 18:56 35.83051 23.88201 15769 ft 325 kts 324°
2026-05-04 18:56 35.84843 23.86504 16534 ft 325 kts 324°
2026-05-04 18:56 35.86637 23.84804 17279 ft 325 kts 324°
2026-05-04 18:56 35.88433 23.83102 18004 ft 326 kts 324°
2026-05-04 18:57 35.90230 23.81397 18671 ft 326 kts 324°
2026-05-04 18:57 35.92034 23.79684 19224 ft 328 kts 324°
2026-05-04 18:57 35.93851 23.77958 19769 ft 330 kts 323°
2026-05-04 18:57 35.95676 23.76224 20308 ft 332 kts 323°
2026-05-04 18:58 35.97514 23.74476 20822 ft 334 kts 323°
2026-05-04 18:58 35.99360 23.72720 21402 ft 335 kts 323°
2026-05-04 18:58 36.01207 23.70943 21909 ft 338 kts 323°
2026-05-04 18:58 36.03070 23.69148 22420 ft 341 kts 323°
2026-05-04 18:59 36.04948 23.67339 22919 ft 344 kts 322°
2026-05-04 18:59 36.06839 23.65516 23436 ft 346 kts 322°
2026-05-04 18:59 36.08749 23.63674 23898 ft 349 kts 322°
2026-05-04 18:59 36.10668 23.61821 24334 ft 351 kts 322°
2026-05-04 19:00 36.12596 23.59959 24777 ft 353 kts 322°
2026-05-04 19:00 36.14511 23.58108 25208 ft 355 kts 322°
2026-05-04 19:00 36.16458 23.56225 25655 ft 356 kts 322°
2026-05-04 19:00 36.18442 23.54306 26086 ft 358 kts 322°
2026-05-04 19:01 36.20381 23.52428 26491 ft 360 kts 322°
2026-05-04 19:01 36.22356 23.50514 26892 ft 362 kts 322°
2026-05-04 19:01 36.24376 23.48564 27306 ft 364 kts 324°
2026-05-04 19:01 36.25814 23.47498 27548 ft 366 kts 335°
2026-05-04 19:02 36.28256 23.46579 27998 ft 369 kts 342°
2026-05-04 19:02 36.30749 23.45765 28327 ft 372 kts 342°
2026-05-04 19:02 36.33265 23.44968 28720 ft 374 kts 343°
2026-05-04 19:02 36.35792 23.44185 29098 ft 376 kts 343°
2026-05-04 19:03 36.38337 23.43407 29448 ft 378 kts 343°
2026-05-04 19:03 36.40893 23.42630 29776 ft 379 kts 343°
2026-05-04 19:03 36.43466 23.41850 30098 ft 382 kts 343°
2026-05-04 19:03 36.46056 23.41065 30409 ft 384 kts 343°
2026-05-04 19:04 36.48656 23.40277 30691 ft 386 kts 343°
2026-05-04 19:04 36.51271 23.39484 30973 ft 388 kts 343°
2026-05-04 19:04 36.53898 23.38686 31249 ft 390 kts 343°
2026-05-04 19:04 36.56541 23.37883 31505 ft 392 kts 343°
2026-05-04 19:05 36.59200 23.37074 31794 ft 394 kts 343°
2026-05-04 19:05 36.61862 23.36265 32147 ft 393 kts 343°
2026-05-04 19:05 36.64518 23.35456 32514 ft 393 kts 343°
2026-05-04 19:05 36.67172 23.34648 32871 ft 392 kts 343°
2026-05-04 19:06 36.69824 23.33839 33238 ft 392 kts 343°
2026-05-04 19:06 36.72474 23.33030 33576 ft 392 kts 343°
2026-05-04 19:06 36.75120 23.32223 33932 ft 391 kts 343°
2026-05-04 19:06 36.77764 23.31414 34229 ft 392 kts 343°
2026-05-04 19:07 36.80422 23.30602 34430 ft 394 kts 343°
2026-05-04 19:07 36.83082 23.29788 34687 ft 394 kts 343°
2026-05-04 19:07 36.85746 23.28972 34937 ft 395 kts 343°
2026-05-04 19:07 36.88413 23.28155 35176 ft 395 kts 343°
2026-05-04 19:08 36.91083 23.27336 35419 ft 395 kts 343°
2026-05-04 19:08 36.93757 23.26515 35656 ft 396 kts 343°
2026-05-04 19:08 36.96435 23.25693 35884 ft 396 kts 343°
2026-05-04 19:08 36.99113 23.24870 36104 ft 397 kts 343°
2026-05-04 19:09 37.01797 23.24045 36313 ft 398 kts 343°
2026-05-04 19:09 37.04489 23.23217 36504 ft 399 kts 343°
2026-05-04 19:09 37.07186 23.22386 36716 ft 399 kts 343°
2026-05-04 19:09 37.09880 23.21556 36912 ft 400 kts 343°
2026-05-04 19:10 37.12584 23.20722 37120 ft 400 kts 343°
2026-05-04 19:10 37.15284 23.19888 37306 ft 400 kts 343°
2026-05-04 19:10 37.17990 23.19052 37502 ft 400 kts 343°
2026-05-04 19:10 37.20698 23.18215 37687 ft 401 kts 342°
2026-05-04 19:11 37.23368 23.17389 37876 ft 401 kts 342°
2026-05-04 19:11 37.26117 23.16539 38020 ft 402 kts 343°
2026-05-04 19:11 37.28834 23.15697 38132 ft 403 kts 343°
2026-05-04 19:11 37.31562 23.14851 38146 ft 404 kts 343°
2026-05-04 19:12 37.39730 23.12315 38141 ft 403 kts 343°
2026-05-04 19:13 37.45173 23.10622 38119 ft 403 kts 343°
2026-05-04 19:13 37.50574 23.08939 38166 ft 403 kts 343°
2026-05-04 19:14 37.56007 23.07244 38144 ft 402 kts 343°
2026-05-04 19:14 37.61450 23.05543 38138 ft 403 kts 343°
2026-05-04 19:15 37.66883 23.03843 38122 ft 401 kts 343°
2026-05-04 19:15 37.72318 23.02142 38147 ft 403 kts 343°
2026-05-04 19:16 37.77756 23.00433 38144 ft 403 kts 343°
2026-05-04 19:16 37.83197 22.98722 38138 ft 403 kts 343°
2026-05-04 19:17 37.88633 22.97011 38143 ft 402 kts 343°
2026-05-04 19:17 37.94074 22.95295 38146 ft 403 kts 343°
2026-05-04 19:18 37.99532 22.93571 38145 ft 405 kts 343°
2026-05-04 19:18 38.05009 22.91839 38141 ft 405 kts 343°
2026-05-04 19:19 38.10481 22.90105 38139 ft 405 kts 343°
2026-05-04 19:19 38.15916 22.88381 38143 ft 405 kts 343°
2026-05-04 19:20 38.21395 22.86640 38150 ft 407 kts 343°
2026-05-04 19:20 38.26891 22.84892 38155 ft 408 kts 343°
2026-05-04 19:21 38.32422 22.83128 38150 ft 407 kts 343°
2026-05-04 19:21 38.37922 22.81372 38150 ft 407 kts 343°
2026-05-04 19:22 38.43383 22.79626 38150 ft 407 kts 343°
2026-05-04 19:22 38.48882 22.77865 38121 ft 407 kts 343°
2026-05-04 19:23 38.54376 22.76102 38136 ft 407 kts 343°
2026-05-04 19:23 38.59871 22.74337 38141 ft 407 kts 343°
2026-05-04 19:24 38.65364 22.72570 38151 ft 407 kts 343°
2026-05-04 19:24 38.70852 22.70800 38155 ft 407 kts 343°
2026-05-04 19:25 38.76349 22.69026 38146 ft 407 kts 343°
2026-05-04 19:25 38.81840 22.67251 38150 ft 407 kts 343°
2026-05-04 19:26 38.87332 22.65473 38159 ft 407 kts 343°
2026-05-04 19:26 38.92827 22.63690 38135 ft 407 kts 343°
2026-05-04 19:27 38.98321 22.61905 38130 ft 407 kts 343°
2026-05-04 19:27 39.03817 22.60117 38119 ft 407 kts 343°
2026-05-04 19:28 39.09312 22.58326 38109 ft 408 kts 343°
2026-05-04 19:28 39.14798 22.56536 38114 ft 406 kts 344°
2026-05-04 19:29 39.20276 22.54744 38110 ft 406 kts 344°
2026-05-04 19:29 39.25753 22.52951 38118 ft 406 kts 344°
2026-05-04 19:30 39.31228 22.51155 38113 ft 406 kts 344°
2026-05-04 19:30 39.36710 22.49354 38124 ft 407 kts 344°
2026-05-04 19:31 39.42200 22.47547 38129 ft 407 kts 344°
2026-05-04 19:31 39.47690 22.45738 38125 ft 407 kts 344°
2026-05-04 19:32 39.53176 22.43927 38127 ft 407 kts 344°
2026-05-04 19:32 39.58675 22.42108 38125 ft 409 kts 344°
2026-05-04 19:33 39.64196 22.40279 38122 ft 409 kts 344°
2026-05-04 19:33 39.69718 22.38448 38124 ft 410 kts 344°
2026-05-04 19:34 39.75239 22.36613 38123 ft 410 kts 344°
2026-05-04 19:34 39.80764 22.34774 38127 ft 411 kts 344°
2026-05-04 19:35 39.86270 22.32938 38101 ft 411 kts 344°
2026-05-04 19:35 39.91806 22.31089 38119 ft 411 kts 344°
2026-05-04 19:36 39.97347 22.29235 38136 ft 411 kts 344°
2026-05-04 19:36 40.02887 22.27379 38124 ft 411 kts 344°
2026-05-04 19:37 40.08440 22.25515 38120 ft 412 kts 344°
2026-05-04 19:37 40.13992 22.23648 38138 ft 412 kts 344°
2026-05-04 19:38 40.19543 22.21778 38115 ft 411 kts 344°
2026-05-04 19:38 40.25096 22.19905 38157 ft 412 kts 344°
2026-05-04 19:39 40.30665 22.18023 38136 ft 413 kts 344°
2026-05-04 19:39 40.36232 22.16138 38130 ft 413 kts 344°
2026-05-04 19:40 40.41793 22.14253 38112 ft 412 kts 344°
2026-05-04 19:40 40.47358 22.12362 38100 ft 414 kts 344°
2026-05-04 19:41 40.52917 22.10471 38106 ft 412 kts 344°
2026-05-04 19:41 40.58471 22.08578 38097 ft 412 kts 344°
2026-05-04 19:42 40.63988 22.06695 38094 ft 412 kts 344°
2026-05-04 19:42 40.69542 22.04796 38101 ft 413 kts 344°
2026-05-04 19:43 40.75101 22.02892 38118 ft 413 kts 344°
2026-05-04 19:43 40.80651 22.00988 38119 ft 412 kts 344°
2026-05-04 19:44 40.86198 21.99082 38117 ft 412 kts 344°
2026-05-04 19:44 40.91760 21.97167 38101 ft 413 kts 344°
2026-05-04 19:45 40.97329 21.95247 38099 ft 414 kts 344°
2026-05-04 19:45 41.02900 21.93322 38126 ft 414 kts 344°
2026-05-04 19:46 41.08443 21.91239 38102 ft 412 kts 338°
2026-05-04 19:46 41.13840 21.88597 38098 ft 414 kts 340°
2026-05-04 19:47 41.19272 21.86023 38115 ft 415 kts 340°
2026-05-04 19:47 41.24703 21.83460 38120 ft 414 kts 340°
2026-05-04 19:48 41.30136 21.80892 38099 ft 414 kts 340°
2026-05-04 19:48 41.34656 21.78752 38100 ft 415 kts 340°
2026-05-04 19:49 41.40092 21.76175 38104 ft 415 kts 340°
2026-05-04 19:49 41.45527 21.73594 38116 ft 415 kts 340°
2026-05-04 19:50 41.50965 21.71006 38130 ft 415 kts 340°
2026-05-04 19:50 41.56402 21.68415 38129 ft 415 kts 340°
2026-05-04 19:51 41.61842 21.65817 38107 ft 415 kts 340°
2026-05-04 19:51 41.67284 21.63214 38114 ft 415 kts 340°
2026-05-04 19:52 41.72723 21.60607 38122 ft 415 kts 340°
2026-05-04 19:52 41.78161 21.57997 38113 ft 416 kts 340°
2026-05-04 19:53 41.83609 21.55376 38105 ft 416 kts 340°
2026-05-04 19:53 41.89055 21.52752 38106 ft 416 kts 340°
2026-05-04 19:54 41.94499 21.50124 38110 ft 416 kts 340°
2026-05-04 19:54 41.99902 21.47511 38106 ft 416 kts 340°
2026-05-04 19:55 42.05358 21.44868 38111 ft 417 kts 340°
2026-05-04 19:55 42.10806 21.42224 38116 ft 417 kts 340°
2026-05-04 19:56 42.16283 21.39657 38121 ft 417 kts 345°
2026-05-04 19:56 42.21895 21.37683 38122 ft 417 kts 344°
2026-05-04 19:57 42.27495 21.35628 38133 ft 417 kts 344°
2026-05-04 19:57 42.33097 21.33553 38126 ft 417 kts 344°
2026-05-04 19:58 42.38696 21.31474 38132 ft 417 kts 344°
2026-05-04 19:58 42.44301 21.29389 38142 ft 418 kts 344°
2026-05-04 19:59 42.49911 21.27298 38147 ft 418 kts 344°
2026-05-04 19:59 42.55521 21.25204 38146 ft 418 kts 344°
2026-05-04 20:00 42.61132 21.23104 38153 ft 418 kts 344°
2026-05-04 20:00 42.66741 21.21002 38145 ft 418 kts 344°
2026-05-04 20:01 42.72344 21.18898 38141 ft 418 kts 344°
2026-05-04 20:01 42.77953 21.16788 38139 ft 418 kts 344°
2026-05-04 20:02 42.83561 21.14674 38127 ft 418 kts 344°
2026-05-04 20:02 42.89169 21.12557 38116 ft 418 kts 344°
2026-05-04 20:03 42.94781 21.10433 38121 ft 418 kts 344°
2026-05-04 20:03 43.00392 21.08307 38123 ft 419 kts 344°
2026-05-04 20:04 43.05970 21.06189 38117 ft 419 kts 343°
2026-05-04 20:04 43.11599 21.04107 38117 ft 419 kts 348°
2026-05-04 20:05 43.17313 21.02484 38115 ft 419 kts 347°
2026-05-04 20:05 43.23022 21.00805 38126 ft 420 kts 347°
2026-05-04 20:06 43.28735 20.99113 38115 ft 420 kts 347°
2026-05-04 20:06 43.34449 20.97418 38109 ft 419 kts 347°
2026-05-04 20:07 43.40129 20.95729 38105 ft 418 kts 347°
2026-05-04 20:07 43.45812 20.94037 38108 ft 418 kts 347°
2026-05-04 20:08 43.51493 20.92341 38095 ft 418 kts 347°
2026-05-04 20:08 43.57134 20.90654 38105 ft 418 kts 347°
2026-05-04 20:09 43.62813 20.88952 38093 ft 418 kts 347°
2026-05-04 20:09 43.68495 20.87247 38066 ft 418 kts 347°
2026-05-04 20:10 43.74186 20.85535 38098 ft 419 kts 347°